AFL1258 URML-UTAA

Flight info

Callsign AFL1258
Flight time N/A
Altitude 37000
Route BALIP B491 BISNA M23 MARAL B450 MAMED
Aircraft B738/M-SDE2E3FGHIRWXY/LB1

Departure

Time 2026-04-28 17:53
Airport Makhachkala Uytash International Airport (URML)

Arrival

Time N/A
Airport Ashgabat International Airport (UTAA)
Time Latitude Longitude Altitude Speed Heading
2026-04-28 16:59 42.81867 47.65687 20 ft 0 kts 38°
2026-04-28 17:41 42.81868 47.65687 20 ft 0 kts 38°
2026-04-28 17:42 42.81862 47.65681 20 ft 2 kts 38°
2026-04-28 17:43 42.81849 47.65667 20 ft 2 kts 38°
2026-04-28 17:43 42.81836 47.65654 20 ft 2 kts 37°
2026-04-28 17:43 42.81823 47.65640 21 ft 2 kts 37°
2026-04-28 17:43 42.81809 47.65628 20 ft 2 kts 353°
2026-04-28 17:44 42.81794 47.65637 22 ft 2 kts 322°
2026-04-28 17:44 42.81782 47.65653 20 ft 2 kts 302°
2026-04-28 17:44 42.81778 47.65663 20 ft 0 kts 303°
2026-04-28 17:48 42.81783 47.65652 20 ft 4 kts 303°
2026-04-28 17:48 42.81814 47.65593 22 ft 11 kts 311°
2026-04-28 17:49 42.81896 47.65514 20 ft 17 kts 329°
2026-04-28 17:49 42.82001 47.65427 20 ft 17 kts 324°
2026-04-28 17:49 42.82019 47.65342 21 ft 7 kts 247°
2026-04-28 17:49 42.81995 47.65284 21 ft 7 kts 238°
2026-04-28 17:50 42.81960 47.65206 22 ft 12 kts 238°
2026-04-28 17:50 42.81918 47.65085 21 ft 15 kts 270°
2026-04-28 17:50 42.81985 47.64983 18 ft 15 kts 328°
2026-04-28 17:50 42.82080 47.64904 20 ft 17 kts 328°
2026-04-28 17:51 42.82193 47.64806 21 ft 22 kts 328°
2026-04-28 17:51 42.82332 47.64690 22 ft 25 kts 328°
2026-04-28 17:51 42.82490 47.64555 20 ft 27 kts 327°
2026-04-28 17:51 42.82601 47.64423 20 ft 14 kts 300°
2026-04-28 17:52 42.82655 47.64437 20 ft 8 kts 110°
2026-04-28 17:52 42.82604 47.64456 19 ft 8 kts 167°
2026-04-28 17:52 42.82223 47.64784 22 ft 89 kts 148°
2026-04-28 17:53 42.81523 47.65379 20 ft 146 kts 148°
2026-04-28 17:53 42.80587 47.66149 314 ft 171 kts 149°
2026-04-28 17:53 42.79563 47.66978 1045 ft 168 kts 149°
2026-04-28 17:53 42.78584 47.67853 1745 ft 167 kts 134°
2026-04-28 17:54 42.78191 47.69289 2522 ft 168 kts 83°
2026-04-28 17:54 42.78371 47.70855 3359 ft 169 kts 82°
2026-04-28 17:54 42.78551 47.72544 3795 ft 196 kts 82°
2026-04-28 17:54 42.78762 47.74500 4036 ft 222 kts 81°
2026-04-28 17:55 42.78990 47.76647 4369 ft 239 kts 85°
2026-04-28 17:55 42.78718 47.78948 4680 ft 260 kts 114°
2026-04-28 17:55 42.77884 47.81189 5345 ft 269 kts 117°
2026-04-28 17:55 42.77021 47.83460 6273 ft 270 kts 117°
2026-04-28 17:56 42.76156 47.85739 7175 ft 273 kts 117°
2026-04-28 17:56 42.75283 47.88051 8008 ft 277 kts 117°
2026-04-28 17:56 42.74400 47.90398 8828 ft 281 kts 117°